TimeICT,TemperatureF,Dew PointF,Humidity,Sea Level PressureIn,VisibilityMPH,Wind Direction,Wind SpeedMPH,Gust SpeedMPH,PrecipitationIn,Events,Conditions,WindDirDegrees,DateUTC
12:00 AM,78.8,73.4,83,29.83,5.6,Variable,2.3,-,N/A,,Mostly Cloudy,0,2013-05-04 17:00:00
12:30 AM,77.0,73.4,89,29.80,5.6,ESE,2.3,-,N/A,,Mostly Cloudy,120,2013-05-04 17:30:00
1:00 AM,80,76,84,29.77,6,Calm,Calm,,,,Scattered Clouds,,2013-05-04 18:00:00
1:00 AM,78.8,75.2,89,29.80,5.6,SE,2.3,-,N/A,,Mostly Cloudy,140,2013-05-04 18:00:00
1:30 AM,78.8,75.2,89,29.77,5.6,Variable,3.5,-,N/A,,Mostly Cloudy,0,2013-05-04 18:30:00
2:00 AM,78.8,75.2,89,29.77,5.6,Variable,2.3,-,N/A,,Mostly Cloudy,0,2013-05-04 19:00:00
3:00 AM,77.0,75.2,94,29.74,5.6,Calm,Calm,-,N/A,,Mostly Cloudy,0,2013-05-04 20:00:00
5:30 AM,77.0,75.2,94,29.77,5.6,Calm,Calm,-,N/A,,Mostly Cloudy,0,2013-05-04 22:30:00
6:00 AM,77.0,75.2,94,29.77,5.6,Calm,Calm,-,N/A,,Mostly Cloudy,0,2013-05-04 23:00:00
6:30 AM,78.8,75.2,89,29.77,5.6,Calm,Calm,-,N/A,,Mostly Cloudy,0,2013-05-04 23:30:00
7:00 AM,80,78,90,29.76,6,Calm,Calm,,,,Scattered Clouds,,2013-05-05 00:00:00
7:00 AM,78.8,77.0,94,29.80,5.6,Calm,Calm,-,N/A,,Mostly Cloudy,0,2013-05-05 00:00:00
7:30 AM,80.6,77.0,89,29.80,5.6,Calm,Calm,-,N/A,,Mostly Cloudy,0,2013-05-05 00:30:00
8:00 AM,80.6,77.0,89,29.83,5.6,Calm,Calm,-,N/A,,Mostly Cloudy,0,2013-05-05 01:00:00
8:30 AM,82.4,77.0,84,29.83,4.3,Calm,Calm,-,N/A,,Mostly Cloudy,0,2013-05-05 01:30:00
9:00 AM,84.2,78.8,84,29.83,5.0,Variable,1.2,-,N/A,,Mostly Cloudy,0,2013-05-05 02:00:00
9:30 AM,84.2,78.8,84,29.86,5.0,ENE,3.5,-,N/A,,Mostly Cloudy,70,2013-05-05 02:30:00
10:00 AM,86.0,78.8,79,29.86,4.3,Variable,3.5,-,N/A,,Mostly Cloudy,0,2013-05-05 03:00:00
10:30 AM,86.0,77.0,74,29.86,5.0,ENE,6.9,-,N/A,,Mostly Cloudy,70,2013-05-05 03:30:00
11:00 AM,87.8,77.0,70,29.86,4.3,ENE,8.1,-,N/A,,Mostly Cloudy,60,2013-05-05 04:00:00
11:30 AM,89.6,77.0,66,29.80,5.0,ENE,8.1,-,N/A,,Mostly Cloudy,70,2013-05-05 04:30:00
12:00 PM,89.6,75.2,62,29.80,5.0,East,8.1,-,N/A,,Mostly Cloudy,100,2013-05-05 05:00:00
12:30 PM,91.4,77.0,63,29.80,5.0,ESE,8.1,-,N/A,,Mostly Cloudy,120,2013-05-05 05:30:00
1:00 PM,90,78,62,29.76,5,WSW,5.8,,,,Mist,240,2013-05-05 06:00:00
1:00 PM,87.8,77.0,70,29.77,5.0,Variable,5.8,-,N/A,,Mostly Cloudy,0,2013-05-05 06:00:00
1:30 PM,86.0,77.0,74,29.77,5.0,WSW,10.4,-,N/A,,Mostly Cloudy,240,2013-05-05 06:30:00
2:00 PM,86.0,77.0,74,29.74,5.0,SW,10.4,-,N/A,,Mostly Cloudy,230,2013-05-05 07:00:00
2:30 PM,86.0,77.0,74,29.74,5.0,West,5.8,-,N/A,,Mostly Cloudy,260,2013-05-05 07:30:00
3:00 PM,89.6,75.2,62,29.71,5.0,Variable,3.5,-,N/A,,Mostly Cloudy,0,2013-05-05 08:00:00
3:30 PM,87.8,75.2,66,29.74,4.3,East,15.0,-,N/A,Thunderstorm,Thunderstorm,80,2013-05-05 08:30:00
4:00 PM,84.2,75.2,74,29.74,5.0,East,9.2,-,N/A,,Mostly Cloudy,80,2013-05-05 09:00:00
4:30 PM,86.0,75.2,70,29.71,5.0,ENE,6.9,-,N/A,,Mostly Cloudy,70,2013-05-05 09:30:00
5:00 PM,86.0,75.2,70,29.71,5.6,ENE,5.8,-,N/A,,Mostly Cloudy,60,2013-05-05 10:00:00
5:30 PM,84.2,75.2,74,29.71,5.6,ENE,5.8,-,N/A,,Mostly Cloudy,60,2013-05-05 10:30:00
6:00 PM,84.2,75.2,74,29.71,5.6,NE,4.6,-,N/A,,Mostly Cloudy,50,2013-05-05 11:00:00
6:30 PM,82.4,73.4,74,29.74,5.6,Variable,2.3,-,N/A,,Mostly Cloudy,0,2013-05-05 11:30:00
7:00 PM,82,76,78,29.73,6,Calm,Calm,,,,Partly Cloudy,,2013-05-05 12:00:00
7:00 PM,82.4,73.4,74,29.77,5.6,East,5.8,-,N/A,,Mostly Cloudy,80,2013-05-05 12:00:00
7:30 PM,80.6,73.4,79,29.77,5.0,East,3.5,-,N/A,,Mostly Cloudy,80,2013-05-05 12:30:00
8:00 PM,80.6,73.4,79,29.77,5.6,Variable,1.2,-,N/A,,Mostly Cloudy,0,2013-05-05 13:00:00
8:30 PM,78.8,73.4,83,29.77,5.6,Variable,2.3,-,N/A,,Mostly Cloudy,0,2013-05-05 13:30:00
9:00 PM,78.8,73.4,83,29.77,5.6,ENE,3.5,-,N/A,,Mostly Cloudy,60,2013-05-05 14:00:00
9:30 PM,80.6,75.2,84,29.80,5.6,East,5.8,-,N/A,,Mostly Cloudy,80,2013-05-05 14:30:00
10:00 PM,78.8,75.2,89,29.83,5.6,SE,3.5,-,N/A,,Scattered Clouds,140,2013-05-05 15:00:00
10:30 PM,78.8,75.2,89,29.83,5.6,Variable,2.3,-,N/A,,Mostly Cloudy,0,2013-05-05 15:30:00
11:00 PM,78.8,75.2,89,29.86,5.6,Variable,1.2,-,N/A,,Mostly Cloudy,0,2013-05-05 16:00:00
11:30 PM,80.6,75.2,84,29.86,5.6,Variable,3.5,-,N/A,,Mostly Cloudy,0,2013-05-05 16:30:00